GW4034 Weather Reports


Display with metric or nautical units.
time (UTC)temp
F
wind
direction
speed
MPH
gust
MPH
rain 1hr
in
rain 24hr
in
rain mn
in
humidity
%
barometer
mb
20260509074307 50 183 0.0 0.0 0.00 0.00 0.00 89 1017.3
20260509073803 50 158 0.0 0.0 0.00 0.00 0.00 89 1017.3
20260509073259 50 160 0.0 0.0 0.00 0.00 0.00 89 1017.2
20260509072756 50 165 0.0 0.0 0.00 0.00 0.00 89 1017.2
20260509072253 50 160 0.0 0.0 0.00 0.00 0.00 89 1017.0
20260509071750 50 181 0.0 0.0 0.00 0.00 0.00 89 1017.0
20260509071247 51 184 0.0 0.0 0.00 0.00 0.00 89 1017.1
20260509070744 50 184 0.0 0.0 0.00 0.00 0.00 89 1017.2
20260509070240 50 184 0.0 0.0 0.00 0.00 0.00 88 1017.4
20260509065737 50 185 0.0 0.0 0.00 0.00 0.00 88 1017.2
20260509065233 50 185 0.0 0.0 0.00 0.00 0.00 87 1017.4
20260509064729 50 185 0.0 0.0 0.00 0.00 0.00 87 1017.3
20260509064227 50 185 0.0 0.0 0.00 0.00 0.00 87 1017.2
20260509063724 50 185 0.0 0.0 0.00 0.00 0.00 86 1017.3
20260509041101 52 195 0.0 0.0 0.00 0.00 0.00 77 1017.7
20260509040600 52 195 0.0 0.0 0.00 0.00 0.00 77 1017.7
20260509040056 53 195 0.0 0.0 0.00 0.01 0.01 75 1018.0
20260509035553 53 195 0.0 0.0 0.00 0.01 0.01 75 1018.0
20260509035049 53 195 0.0 0.0 0.00 0.01 0.01 75 1018.0
20260509032449 54 192 0.0 0.0 0.00 0.01 0.01 73 1018.1
20260509031947 54 192 0.0 0.0 0.00 0.01 0.01 73 1018.1
20260509031443 54 180 0.0 0.0 0.00 0.01 0.01 72 1018.0
20260509030941 54 185 0.0 0.0 0.00 0.01 0.01 71 1018.0
20260509030439 54 185 0.0 0.0 0.00 0.01 0.01 71 1018.1
20260509025936 54 189 0.0 0.0 0.00 0.01 0.01 71 1017.8
20260509025431 54 182 0.0 0.0 0.00 0.01 0.01 71 1018.0
20260509024927 54 188 0.0 0.0 0.00 0.01 0.01 71 1018.1
20260509024423 54 180 0.0 0.0 0.00 0.01 0.01 71 1018.0
20260509023920 54 213 1.0 1.0 0.00 0.01 0.01 71 1017.8
20260509023417 54 184 0.0 1.0 0.00 0.01 0.01 71 1017.8
20260509022914 54 184 0.0 0.0 0.00 0.01 0.01 72 1017.7
20260509022411 54 180 0.0 0.0 0.00 0.01 0.01 71 1017.7
20260509021908 54 181 0.0 0.0 0.00 0.01 0.01 71 1017.9
20260509021405 53 181 0.0 0.0 0.00 0.01 0.01 72 1017.7
20260509020903 53 191 0.0 1.0 0.00 0.01 0.01 73 1017.9
20260509020401 53 176 0.0 0.0 0.00 0.01 0.01 74 1017.5
20260509015857 53 176 0.0 0.0 0.00 0.01 0.01 74 1017.7
20260509015356 53 176 0.0 0.0 0.00 0.01 0.01 74 1017.7
20260509014852 52 164 0.0 0.0 0.00 0.01 0.01 73 1017.6
20260509014349 52 163 0.0 0.0 0.00 0.01 0.01 74 1017.2
20260509013846 52 201 0.0 0.0 0.00 0.01 0.01 74 1017.3
20260509013342 52 201 0.0 0.0 0.00 0.01 0.01 74 1017.1
20260509012838 52 201 0.0 0.0 0.00 0.01 0.01 74 1017.2
20260509012335 52 201 0.0 0.0 0.00 0.01 0.01 73 1017.0
20260509011833 52 201 0.0 0.0 0.00 0.01 0.01 73 1017.1
20260509011330 52 201 0.0 0.0 0.00 0.01 0.01 73 1017.0
20260509010827 53 201 0.0 0.0 0.00 0.01 0.01 72 1016.8
20260509010324 52 201 0.0 0.0 0.00 0.01 0.01 72 1016.8
20260509005821 52 201 0.0 0.0 0.00 0.01 0.01 72 1016.7
20260509005320 52 201 0.0 0.0 0.00 0.01 0.01 71 1016.6
20260509004819 53 201 0.0 0.0 0.00 0.01 0.01 71 1016.6
20260509004315 53 201 0.0 0.0 0.00 0.01 0.01 70 1016.5
20260509003814 53 201 0.0 0.0 0.00 0.01 0.01 69 1016.4
20260509003312 53 201 0.0 0.0 0.00 0.01 0.01 68 1016.4
20260509002808 53 201 0.0 0.0 0.00 0.01 0.01 67 1016.2
20260509002306 53 201 0.0 0.0 0.00 0.01 0.01 65 1016.3
20260509001804 54 201 0.0 0.0 0.00 0.01 0.01 63 1016.4
20260509001259 55 201 0.0 0.0 0.00 0.01 0.01 62 1016.6
20260509000757 55 201 0.0 0.0 0.00 0.01 0.01 61 1016.5
20260509000256 56 201 0.0 0.0 0.00 0.01 0.01 60 1016.6
20260508235751 56 200 0.0 0.0 0.00 0.01 0.01 59 1016.3
20260508235242 57 216 1.0 1.0 0.00 0.01 0.01 58 1016.4
20260508234740 57 233 1.0 1.0 0.00 0.01 0.01 58 1016.3
20260508234235 57 198 0.0 1.0 0.00 0.01 0.01 57 1016.3
20260508233729 58 196 0.0 1.0 0.00 0.01 0.01 56 1016.2
20260508233227 58 218 1.0 1.0 0.00 0.01 0.01 55 1016.3
20260508232724 58 239 1.0 1.0 0.00 0.01 0.01 56 1016.1
20260508232221 58 245 2.0 2.0 0.00 0.01 0.01 55 1016.3
20260508231719 58 201 0.0 0.0 0.00 0.01 0.01 55 1016.2
20260508231215 58 243 1.0 1.0 0.00 0.01 0.01 55 1016.0
20260508230712 58 353 2.0 2.0 0.00 0.01 0.01 55 1015.9
20260508230208 58 206 0.0 1.0 0.00 0.01 0.01 55 1016.0
20260508225706 58 167 0.0 1.0 0.00 0.01 0.01 55 1015.8
20260508225202 58 246 2.0 2.0 0.00 0.01 0.01 54 1015.9
20260508224700 59 204 2.0 3.0 0.00 0.01 0.01 53 1016.0
20260508224157 59 302 5.0 7.0 0.00 0.01 0.01 53 1015.9
20260508223655 59 298 2.0 2.0 0.00 0.01 0.01 53 1016.0
20260508223152 59 216 1.0 2.0 0.00 0.01 0.01 54 1015.8
20260508222650 59 183 0.0 0.0 0.00 0.01 0.01 54 1015.8
20260508222147 59 196 1.0 2.0 0.00 0.01 0.01 54 1016.0
20260508221643 60 231 4.0 7.0 0.00 0.01 0.01 52 1015.8
20260508221138 61 217 1.0 2.0 0.00 0.01 0.01 51 1015.8
20260508220636 61 217 1.0 2.0 0.00 0.01 0.01 51 1015.8
20260508220132 60 134 2.0 3.0 0.00 0.01 0.01 53 1015.8
20260508215628 60 25 4.0 4.0 0.00 0.01 0.01 53 1015.9
20260508215125 60 193 4.0 4.0 0.00 0.01 0.01 51 1015.9
20260508214622 60 207 2.0 2.0 0.00 0.01 0.01 52 1015.7
20260508214119 60 277 2.0 3.0 0.00 0.01 0.01 54 1015.8
20260508213616 58 282 2.0 2.0 0.00 0.01 0.01 57 1016.1
20260508213112 58 233 2.0 2.0 0.00 0.01 0.01 57 1016.4
20260508212609 58 174 1.0 2.0 0.00 0.01 0.01 57 1016.2
20260508212105 58 285 4.0 4.0 0.00 0.01 0.01 57 1016.3
20260508211601 58 292 2.0 3.0 0.00 0.01 0.01 56 1016.3
20260508211057 59 329 3.0 3.0 0.00 0.01 0.01 56 1016.4
20260508210554 59 292 4.0 4.0 0.00 0.01 0.01 55 1016.3
20260508210051 58 228 1.0 1.0 0.00 0.01 0.01 56 1016.3
20260508205548 59 12 3.0 3.0 0.00 0.01 0.01 56 1016.3
20260508205044 59 153 2.0 3.0 0.00 0.01 0.01 56 1016.3
20260508204541 59 309 3.0 3.0 0.00 0.01 0.01 55 1016.1
20260508204037 59 279 3.0 4.0 0.00 0.01 0.01 55 1016.2
20260508203533 59 184 3.0 4.0 0.00 0.01 0.01 55 1016.2
20260508203029 58 22 3.0 3.0 0.00 0.01 0.01 55 1016.0
20260508202526 58 324 4.0 6.0 0.00 0.01 0.01 55 1016.0
20260508202023 59 341 3.0 4.0 0.00 0.01 0.01 54 1016.2
20260508201520 59 354 2.0 3.0 0.00 0.01 0.01 54 1016.1
20260508201017 59 213 5.0 8.0 0.00 0.01 0.01 55 1016.0
20260508200514 60 20 2.0 3.0 0.00 0.01 0.01 55 1015.8
20260508200009 59 173 1.0 1.0 0.00 0.01 0.01 56 1015.9
20260508195506 59 231 1.0 2.0 0.00 0.01 0.01 57 1016.1
20260508195003 58 346 4.0 6.0 0.00 0.01 0.01 57 1016.0
20260508194500 59 21 9.0 14.0 0.00 0.01 0.01 58 1016.2
20260508193957 60 335 4.0 7.0 0.00 0.01 0.01 58 1016.2
20260508193453 59 348 8.0 9.0 0.00 0.01 0.01 57 1016.3
20260508192950 58 271 1.0 2.0 0.00 0.01 0.01 57 1016.4
20260508192446 59 257 3.0 4.0 0.00 0.01 0.01 55 1016.3
20260508191943 57 325 1.0 2.0 0.00 0.01 0.01 58 1016.2
20260508191441 57 288 11.0 14.0 0.00 0.01 0.01 54 1016.3
20260508190937 57 305 6.0 10.0 0.00 0.01 0.01 52 1016.4
20260508190435 58 357 2.0 2.0 0.00 0.01 0.01 54 1016.2
20260508185931 59 136 2.0 2.0 0.00 0.01 0.01 52 1016.2
20260508185428 59 291 2.0 3.0 0.00 0.01 0.01 50 1016.1
20260508184925 59 286 2.0 3.0 0.00 0.01 0.01 50 1016.0
20260508184423 59 319 2.0 2.0 0.00 0.01 0.01 49 1016.0
20260508183919 59 332 4.0 4.0 0.00 0.01 0.01 47 1015.7
20260508183416 60 175 6.0 11.0 0.00 0.01 0.01 46 1015.8
20260508182911 60 273 2.0 3.0 0.00 0.01 0.01 48 1015.9
20260508182409 60 157 1.0 2.0 0.00 0.01 0.01 49 1015.9
20260508181904 59 216 1.0 2.0 0.00 0.01 0.01 50 1015.9
20260508181401 58 178 3.0 7.0 0.00 0.01 0.01 49 1015.9
20260508180858 58 202 2.0 3.0 0.00 0.01 0.01 49 1015.9
20260508180355 59 85 8.0 15.0 0.00 0.01 0.01 48 1015.9
20260508175850 59 211 7.0 9.0 0.00 0.01 0.01 47 1015.8
20260508175348 59 200 2.0 3.0 0.00 0.01 0.01 48 1015.8
20260508174846 60 187 2.0 2.0 0.00 0.01 0.01 47 1015.9
20260508174343 60 189 6.0 9.0 0.00 0.01 0.01 46 1015.7
20260508173839 60 329 3.0 3.0 0.00 0.01 0.01 47 1015.8
20260508173336 60 186 4.0 4.0 0.00 0.01 0.01 46 1015.9
20260508172832 60 288 4.0 6.0 0.00 0.01 0.01 46 1015.8
20260508172329 62 164 2.0 3.0 0.00 0.01 0.01 46 1015.8
20260508171825 60 330 3.0 3.0 0.00 0.01 0.01 47 1015.7
20260508171322 60 204 6.0 8.0 0.00 0.01 0.01 45 1015.9
20260508170819 60 306 3.0 6.0 0.00 0.01 0.01 45 1016.0
20260508170317 60 182 4.0 7.0 0.00 0.01 0.01 45 1015.8
20260508165813 60 266 2.0 2.0 0.00 0.01 0.01 46 1015.8
20260508165311 60 263 6.0 7.0 0.00 0.01 0.01 45 1015.8
20260508164806 61 192 2.0 3.0 0.00 0.01 0.01 46 1015.8
20260508164303 60 298 6.0 8.0 0.00 0.01 0.01 45 1015.9
20260508163801 60 222 7.0 8.0 0.00 0.01 0.01 45 1016.2
20260508163259 60 199 4.0 4.0 0.00 0.01 0.01 45 1016.0
20260508162754 60 210 7.0 9.0 0.00 0.01 0.01 43 1016.2
20260508162251 60 165 5.0 7.0 0.00 0.01 0.01 45 1016.2
20260508161748 60 233 3.0 4.0 0.00 0.01 0.01 45 1016.3
20260508161245 59 224 3.0 6.0 0.00 0.01 0.01 46 1016.4
20260508160743 59 208 2.0 3.0 0.00 0.01 0.01 46 1016.3
20260508160241 59 235 5.0 7.0 0.00 0.01 0.01 46 1016.3
20260508155737 60 298 3.0 4.0 0.00 0.01 0.01 46 1016.5
20260508155235 59 220 3.0 3.0 0.00 0.01 0.01 44 1016.5
20260508154732 59 280 4.0 4.0 0.00 0.01 0.01 44 1016.7
20260508154229 60 274 4.0 7.0 0.00 0.01 0.01 45 1016.3
20260508153725 60 143 3.0 4.0 0.00 0.01 0.01 44 1016.5
20260508153222 60 232 2.0 2.0 0.00 0.01 0.01 42 1016.5
20260508152719 61 239 9.0 10.0 0.00 0.01 0.01 43 1016.4
20260508152215 60 186 1.0 1.0 0.00 0.01 0.01 44 1016.4
20260508151712 59 6 2.0 4.0 0.00 0.01 0.01 45 1016.6
20260508151208 60 311 5.0 7.0 0.00 0.01 0.01 44 1016.5
20260508150705 59 319 4.0 4.0 0.00 0.01 0.01 46 1016.4
20260508150202 58 265 3.0 3.0 0.00 0.01 0.01 47 1016.9
20260508145658 58 245 4.0 6.0 0.00 0.01 0.01 45 1016.7
20260508145154 58 304 3.0 3.0 0.00 0.01 0.01 45 1016.7
20260508144652 58 65 3.0 6.0 0.00 0.01 0.01 45 1016.9
20260508144149 59 314 3.0 6.0 0.00 0.01 0.01 47 1016.8
20260508143646 58 204 2.0 3.0 0.00 0.01 0.01 51 1016.8
20260508143143 57 177 0.0 0.0 0.00 0.01 0.01 54 1017.0
20260508142639 56 346 3.0 4.0 0.00 0.01 0.01 52 1016.9
20260508142136 58 245 6.0 7.0 0.00 0.01 0.01 51 1017.1
20260508141633 57 152 3.0 3.0 0.00 0.01 0.01 52 1017.0
20260508141131 57 279 3.0 4.0 0.00 0.01 0.01 53 1016.6
20260508140628 56 201 2.0 3.0 0.00 0.01 0.01 55 1017.0
20260508140125 57 313 1.0 2.0 0.00 0.01 0.01 54 1016.8
20260508135620 56 231 2.0 2.0 0.00 0.01 0.01 52 1016.8
20260508135116 56 306 5.0 7.0 0.00 0.01 0.01 52 1016.9
20260508134613 56 348 2.0 3.0 0.00 0.01 0.01 56 1017.0
20260508134110 55 337 3.0 4.0 0.00 0.01 0.01 58 1016.9
20260508133607 55 180 3.0 4.0 0.00 0.01 0.01 56 1016.8
20260508133105 55 76 2.0 4.0 0.00 0.01 0.01 59 1016.9
20260508132602 55 353 2.0 3.0 0.00 0.01 0.01 59 1016.9
20260508132059 54 37 2.0 3.0 0.00 0.01 0.01 60 1017.1
20260508131554 54 276 1.0 1.0 0.00 0.01 0.01 61 1016.9
20260508131051 54 303 4.0 6.0 0.00 0.01 0.01 62 1016.9
20260508130548 54 7 3.0 4.0 0.00 0.01 0.01 62 1016.8
20260508130044 54 177 2.0 3.0 0.00 0.01 0.01 64 1016.8
20260508125540 53 276 2.0 3.0 0.00 0.01 0.01 64 1017.2
20260508125038 53 73 1.0 1.0 0.00 0.01 0.01 65 1017.2
20260508124536 53 269 6.0 9.0 0.00 0.01 0.01 66 1017.1
20260508124033 53 239 1.0 2.0 0.00 0.01 0.01 65 1017.3
20260508123531 52 189 2.0 2.0 0.00 0.01 0.01 67 1017.1
20260508123027 52 155 2.0 3.0 0.00 0.01 0.01 67 1017.3
20260508122524 51 354 2.0 2.0 0.00 0.01 0.01 68 1017.5
20260508122021 51 232 5.0 7.0 0.00 0.01 0.01 69 1017.4
20260508121519 51 206 3.0 4.0 0.00 0.01 0.01 70 1017.2
20260508121017 51 151 5.0 7.0 0.00 0.01 0.01 69 1017.2
20260508120514 51 258 3.0 4.0 0.00 0.01 0.01 69 1017.1
20260508120013 51 98 2.0 2.0 0.00 0.01 0.01 70 1017.1
20260508115510 51 20 4.0 6.0 0.00 0.01 0.01 70 1016.8
20260508115006 51 316 4.0 7.0 0.00 0.01 0.01 71 1017.0
20260508114503 51 181 1.0 1.0 0.00 0.01 0.01 72 1017.0
20260508113959 51 196 1.0 1.0 0.00 0.01 0.01 72 1016.7
20260508113457 51 184 0.0 0.0 0.00 0.01 0.01 74 1016.8
20260508112954 50 173 0.0 1.0 0.00 0.01 0.01 75 1016.7
20260508112451 50 177 0.0 0.0 0.00 0.01 0.01 76 1016.7
20260508111948 50 205 1.0 1.0 0.00 0.01 0.01 75 1016.8
20260508111445 49 143 1.0 1.0 0.00 0.01 0.01 78 1016.6
20260508110942 49 143 1.0 1.0 0.00 0.01 0.01 78 1016.6
20260508110440 48 16 2.0 2.0 0.00 0.01 0.01 80 1016.8
20260508105939 48 165 0.0 0.0 0.00 0.01 0.01 82 1016.8
20260508105436 48 182 0.0 0.0 0.00 0.01 0.01 82 1016.7
20260508104933 48 178 0.0 0.0 0.00 0.01 0.01 85 1016.7
20260508104431 47 178 0.0 0.0 0.00 0.01 0.01 87 1016.6
20260508103927 46 178 0.0 0.0 0.00 0.01 0.01 89 1016.6
20260508103424 45 180 0.0 0.0 0.00 0.01 0.01 90 1016.5
20260508102921 44 181 0.0 0.0 0.00 0.01 0.01 89 1016.4
20260508102420 44 181 0.0 0.0 0.00 0.01 0.01 88 1016.5
20260508101916 44 181 0.0 0.0 0.00 0.01 0.01 88 1016.4
20260508101414 44 181 0.0 0.0 0.00 0.01 0.01 88 1016.5
20260508100911 44 205 0.0 0.0 0.00 0.01 0.01 87 1016.3
20260508100410 44 205 0.0 0.0 0.00 0.01 0.01 87 1016.4
20260508095905 45 205 0.0 0.0 0.00 0.01 0.01 86 1016.3
20260508095403 45 205 0.0 0.0 0.00 0.01 0.01 86 1016.2
20260508094859 45 205 0.0 0.0 0.00 0.01 0.01 85 1016.0
20260508094356 45 205 0.0 0.0 0.00 0.01 0.01 85 1016.2
20260508093853 46 205 0.0 0.0 0.00 0.01 0.01 84 1016.2
20260508093351 46 205 0.0 0.0 0.00 0.01 0.01 84 1016.3
20260508092848 46 215 0.0 1.0 0.00 0.01 0.01 83 1016.1
20260508092346 46 222 0.0 1.0 0.00 0.01 0.01 83 1016.1
20260508091844 46 263 1.0 2.0 0.00 0.01 0.01 83 1016.0
20260508091340 46 214 1.0 1.0 0.00 0.01 0.01 83 1016.0
20260508090838 46 214 1.0 2.0 0.00 0.01 0.01 83 1015.9
20260508090337 46 187 0.0 0.0 0.00 0.01 0.01 83 1016.1
20260508085832 46 233 1.0 1.0 0.00 0.01 0.01 83 1016.0
20260508085329 46 191 0.0 0.0 0.00 0.01 0.01 83 1015.9
20260508084825 46 245 1.0 1.0 0.00 0.01 0.01 83 1015.8
20260508084323 46 191 1.0 1.0 0.00 0.01 0.01 84 1015.9
20260508083820 46 285 0.0 1.0 0.00 0.01 0.01 84 1015.7
20260508083317 46 193 0.0 0.0 0.00 0.01 0.01 84 1015.7
20260508082817 46 86 0.0 1.0 0.00 0.01 0.01 84 1015.6
20260508082315 46 345 0.0 1.0 0.00 0.01 0.01 84 1015.6
20260508081812 46 57 1.0 2.0 0.00 0.01 0.01 84 1015.6
20260508081309 46 291 1.0 2.0 0.00 0.01 0.01 84 1015.5
20260508080806 46 143 0.0 0.0 0.00 0.01 0.01 83 1015.7
20260508080304 46 275 1.0 1.0 0.00 0.01 0.01 83 1015.8
20260508075800 46 2 2.0 2.0 0.00 0.01 0.01 83 1015.6
20260508075257 46 165 0.0 0.0 0.00 0.01 0.01 83 1015.8
20260508074755 46 275 1.0 1.0 0.00 0.01 0.01 83 1015.9